Regional Weather Roundup
Issued by NWS

Home | Current Version | Previous Version | Graphics & Text | Print | Product List | Glossary On
Versions: 1 2 3 4 5 6 7 8 9 10 11 12 13 14 15 16 17 18 19 20 21 22 23 24 25 26 27 28 29 30 31 32 33 34 35 36 37 38 39 40 41 42 43 44 45 46 47 48 49 50
652
ASUS43 KLSX 240310
RWRMO

WEATHER SUMMARY FOR MISSOURI
NATIONAL WEATHER SERVICE SPRINGFIELD MO
1000 PM CDT MON MAY 23 2016

NOTE: "FAIR" INDICATES FEW OR NO CLOUDS BELOW 12,000 FEET WITH NO
       SIGNIFICANT WEATHER AND/OR OBSTRUCTIONS TO VISIBILITY.
       CURRENT SKY AND/OR WEATHER CONDITIONS ARE NOT AVAILABLE FOR
       CHILLICOTHE AND FARMINGTON.

MOZ001>031-035>038-043-044-053-054-240400-
...NORTHERN AND WESTERN MISSOURI...

CITY           SKY/WX    TMP DP  RH WIND       PRES   REMARKS
KANSAS CTY INT CLOUDY    63  61  93 SE6       29.87R
KANSAS C DTWN  MOCLDY    66  62  87 CALM      29.87R
LEE`S SUMMIT   PTCLDY    68  59  73 S8        29.89R
ST JOSEPH      CLOUDY    66  62  87 S7        29.86R
CHILLICOTHE      N/A     65  62  90 SE3       29.87S
KIRKSVILLE     CLOUDY    66  58  75 SE8       29.90R

$$
MOZ066>068-077>081-088>096-101>105-240400-
...SOUTHWEST MISSOURI...

CITY           SKY/WX    TMP DP  RH WIND       PRES   REMARKS
SPRINGFIELD    CLEAR     63  61  93 S10       29.91R
JOPLIN         CLEAR     63  61  93 SE9       29.90R

$$
MOZ032>034-039>042-045>050-055>058-069>072-240400-
...CENTRAL MISSOURI...

CITY           SKY/WX    TMP DP  RH WIND       PRES   REMARKS
COLUMBIA       PTCLDY    72  55  55 SE7       29.89R
JEFFERSON CITY CLOUDY    73  55  53 SE8       29.88R
ROLLA          CLOUDY    68  54  60 SE9       29.91R
SEDALIA        CLOUDY    71  62  73 S12       29.90R
WHITEMAN AFB   PTCLDY    65  64  96 S5        29.88R
WARRENSBURG    PTCLDY    64  59  82 S3        29.89R
OSAGE BEACH      N/A    N/A N/A N/A MISG        N/A

$$
MOZ051-052-059>065-240400-
...EAST CENTRAL MISSOURI...

CITY           SKY/WX    TMP DP  RH WIND       PRES   REMARKS
ST LOUIS INTL  CLOUDY    75  53  46 S9        29.94S
SPIRIT OF STL  CLOUDY    70  58  65 SE3       29.92S
ST CHARLES     MOCLDY    70  56  61 SE9       29.92S

$$
MOZ072>076-082>087-097>100-106>115-240400-
...SOUTH CENTRAL AND SOUTHEAST MISSOURI...

CITY           SKY/WX    TMP DP  RH WIND       PRES   REMARKS
CAPE GIRARDEAU CLOUDY    67  60  78 E5        29.96R
FARMINGTON     PTCLDY    61  57  87 E6        29.96
POPLAR BLUFF   CLOUDY    72  56  57 SE6       29.92F
WEST PLAINS    MOCLDY    67  57  70 SW5       29.97R

$$




USA.gov is the U.S. government's official web portal to all federal, state and local government web resources and services.